Location: Brantley
(31.5822°N, 86.2569°W)
Time: 20:51:49
(UTC+00:00)

Injun/Solrad 3 - Pass Details

Date: 17 February 2026
Orbit: 872 x 984 km, 66.8° (Epoch: 8 March)

Event Time Altitude Azimuth Distance (km) Brightness Sun altitude
Rises 00:53:34 0° 354° (N) 3,582 11.0 -17.8°
Reaches altitude 10° 00:57:37 10° 20° (NNE) 2,661 10.1 -18.7°
Enters shadow 00:59:01 13° 33° (NNE) 2,487 9.8 -19.0°
Maximum altitude 01:00:36 14° 49° (NE) 2,420 - -19.3°
Drops below altitude 10° 01:03:36 10° 78° (ENE) 2,692 - -19.9°
Sets 01:07:43 0° 104° (ESE) 3,655 - -20.8°
